RH
58 58 61 68 77 83 84 85 84 86 86 83 76 73 72 72 72 80 56 61 79 76 80 88 89 74 62 53 36 38 28 28 31
23 29 34 41 51 58 67 79 82 82 84 81 81 80 78 76 75 76 80 75 53 71 68 70 79 80 74 58 41 34 28 25 27
16 14 14 16 20 26 34 46 57 67 76 80 82 85 86 80 74 73 73 75 79 74 68 74 73 78 77 75 59 42 35 28 27
23 21 20 20 20 21 20 21 22 28 38 49 59 69 80 83 82 81 78 75 72 75 82 82 81 81 86 86 72 60 44 38 31
29 30 29 29 27 26 24 25 26 25 23 21 25 35 43 55 70 73 70 73 81 82 82 83 82 82 80 87 89 82 64 48 42
28 28 30 32 33 34 35 36 36 36 37 40 41 40 50 62 73 78 74 69 67 77 87 87 87 80 79 84 88 92 96 72 48
28 28 29 30 32 34 34 34 34 33 33 35 37 39 44 63 78 74 75 77 74 74 82 86 86 93 93 93 95 95 92 94 93
26 26 27 29 28 28 29 30 30 29 28 28 30 32 34 37 43 60 69 74 71 67 74 80 81 80 79 76 79 87 91 94 96
28 28 29 29 29 28 28 26 26 26 26 25 25 25 24 24 26 34 43 54 67 69 66 67 69 70 64 61 74 75 76 80 87
32 33 34 34 33 32 32 32 34 34 33 33 33 32 32 31 32 30 28 28 33 42 55 63 66 64 60 56 58 63 75 77 81
37 37 38 38 38 38 38 36 36 36 36 37 37 36 35 36 37 37 40 41 40 40 39 38 38 40 45 46 50 51 66 73 81
40 39 39 39 40 42 40 39 37 35 33 32 28 25 30 36 40 42 44 48 52 54 54 54 53 52 51 50 45 46 55 60 58
41 40 40 40 39 38 37 31 20 11 7 4 4 6 18 42 54 59 62 61 60 58 58 57 55 52 50 50 54 59 58 74 81
44 39 34 28 21 16 12 7 5 4 3 3 4 8 24 50 64 68 64 61 61 63 66 66 65 63 63 62 59 60 64 65 78
35 22 14 10 8 7 6 5 5 6 6 6 6 21 40 56 69 71 67 65 66 65 70 73 72 70 70 70 71 69 72 91 92
27 18 15 13 12 11 10 9 9 8 8 7 8 30 58 59 63 61 63 70 72 74 74 75 74 75 78 78 82 85 90 92 93
27 21 20 18 18 17 17 16 14 11 9 8 8 14 35 74 59 49 61 58 69 81 81 83 80 80 79 75 75 81 88 93 91
31 25 24 25 25 26 25 23 19 15 11 9 9 15 29 11 19 64 62 19 34 36 73 82 83 84 80 78 77 74 80 86 93
40 30 29 31 32 33 32 29 25 21 15 12 9 9 14 22 14 19 25 11 8 10 29 43 79 73 87 71 61 59 66 73 82
47 43 34 34 36 39 39 36 29 23 18 14 11 10 11 16 34 29 9 7 10 11 10 18 51 68 39 22 18 13 14 24 46
Wind_Speed
14 14 14 13 12 12 11 11 11 11 11 11 11 11 11 11 10 10 10 12 13 12 11 11 12 14 15 15 15 14 13 11 10
16 16 16 16 15 14 14 15 14 14 14 13 13 13 12 12 11 11 12 12 15 16 16 15 17 16 15 15 14 14 14 13 12
14 14 15 15 15 15 15 16 16 17 16 16 15 15 13 14 13 12 12 13 15 17 19 19 19 19 17 16 16 15 14 14 14
15 14 14 15 15 15 15 16 17 17 18 18 19 19 17 16 14 13 13 13 14 17 18 20 22 21 20 17 16 16 16 15 15
13 14 15 15 15 14 14 15 15 15 15 16 18 19 20 19 19 18 17 15 14 16 17 19 22 24 22 20 19 18 18 18 17
12 13 14 14 14 14 14 14 15 15 15 15 15 16 16 17 17 17 18 18 20 19 17 17 18 20 22 21 22 22 20 20 20
11 12 12 13 14 14 15 16 17 17 17 18 18 18 18 17 17 18 18 18 19 21 20 18 16 16 18 20 22 23 23 23 23
12 12 13 14 14 15 16 16 17 18 18 18 18 18 19 20 21 22 21 21 21 22 22 22 21 21 20 21 22 23 24 24 25
11 12 12 13 14 14 15 15 15 15 16 16 16 16 17 18 20 22 24 26 26 26 25 25 26 26 27 27 25 24 26 27 27
13 13 13 13 13 14 13 13 13 13 13 14 15 15 15 15 16 17 19 21 24 26 29 30 31 31 30 29 28 29 27 27 28
13 12 12 12 12 12 12 12 11 11 11 11 12 13 14 14 15 16 15 16 17 19 21 23 26 29 31 32 32 31 29 29 27
12 12 12 13 13 13 12 12 12 12 11 12 12 12 12 12 12 12 13 13 14 16 18 20 21 21 21 23 26 29 30 32 33
13 13 13 13 12 11 11 11 11 11 12 11 11 11 9 8 7 8 9 9 11 13 15 16 17 19 20 21 23 24 24 23 26
12 11 12 12 13 13 13 14 15 14 13 12 12 10 8 8 7 8 10 11 12 12 12 13 13 14 16 17 18 19 21 24 22
12 12 13 14 14 14 14 14 15 16 15 13 11 7 6 5 6 7 10 11 11 11 11 11 12 12 12 13 16 16 14 10 15
11 12 13 13 14 14 14 14 14 15 16 13 10 5 4 4 5 7 9 11 12 12 12 12 13 12 12 13 12 13 12 11 11
11 12 13 14 15 16 17 18 17 17 18 17 14 4 7 11 12 14 11 12 13 13 13 13 13 14 15 15 15 14 14 13 12
13 13 13 14 14 14 15 16 15 14 14 14 9 5 4 15 9 11 11 15 14 15 15 14 14 15 17 19 19 16 14 11 9
13 13 13 14 14 15 15 16 16 16 15 13 11 11 13 6 9 7 11 12 18 15 14 15 15 18 18 20 20 19 16 14 14
15 16 16 15 15 15 15 15 15 16 15 14 12 11 11 14 12 21 18 20 13 14 17 17 14 16 19 19 19 18 17 16 16
Wind_Direction
287 288 288 289 287 289 291 295 296 300 302 302 303 303 299 295 294 288 287 269 267 278 285 276 275 293 300 300 300 297 296 291 285
286 284 285 285 284 282 282 282 282 284 288 292 290 291 289 286 285 284 279 278 271 271 277 277 278 285 295 297 298 296 296 291 286
290 286 283 282 282 282 279 277 276 275 276 276 277 279 278 273 273 275 277 278 274 273 271 274 278 277 284 292 295 293 292 288 285
294 292 290 289 290 289 288 286 285 282 279 278 277 278 279 278 275 273 276 279 275 277 280 275 273 277 276 283 291 293 293 288 283
298 294 293 296 298 296 293 292 294 295 291 284 280 279 278 277 275 272 269 269 269 270 272 277 273 273 277 277 281 286 289 290 286
307 301 298 296 295 294 292 291 290 289 289 288 286 285 283 280 274 273 270 271 271 274 279 279 276 272 270 273 277 281 285 282 283
309 305 302 299 296 295 294 293 292 291 289 286 284 282 279 278 276 277 278 274 270 273 276 278 276 278 275 275 277 276 279 280 279
314 310 305 302 300 298 296 296 296 296 295 293 291 287 282 276 274 274 276 277 278 278 280 280 281 284 285 282 277 277 278 276 276
321 317 313 312 310 309 307 304 302 301 301 300 298 294 288 283 279 274 271 271 271 273 275 278 279 281 283 280 281 279 276 274 274
327 325 324 324 324 324 322 316 311 305 302 298 295 291 289 288 285 281 279 277 274 273 272 271 273 275 276 277 279 277 279 276 270
331 332 334 335 335 335 334 334 333 328 321 313 305 299 295 292 287 283 283 283 282 279 278 277 277 277 277 277 275 273 274 275 276
332 333 333 332 333 336 337 334 327 324 321 317 310 307 305 296 290 288 286 286 287 288 289 290 290 288 286 284 280 276 272 271 272
332 335 337 338 339 336 332 326 323 323 322 320 309 309 301 303 306 300 297 295 294 292 292 292 294 296 295 286 279 278 279 275 272
333 334 333 333 335 334 333 333 333 333 332 332 320 311 295 292 294 299 301 304 302 300 300 304 308 310 302 297 291 285 287 282 285
331 333 335 335 336 336 335 335 336 334 334 336 327 309 294 291 290 298 310 315 314 313 311 310 311 318 328 328 297 301 303 319 312
328 330 332 332 332 333 334 336 334 332 335 340 342 302 255 276 304 319 316 320 321 317 316 318 322 329 331 331 338 336 321 313 306
321 325 328 329 333 336 338 341 343 344 344 346 344 319 273 260 295 290 304 322 328 316 315 316 317 321 324 325 329 331 329 319 323
322 324 326 328 330 332 333 335 336 337 338 340 342 329 312 315 292 281 285 315 310 307 303 302 307 312 317 313 316 319 314 316 291
309 311 316 320 324 327 329 331 333 335 334 332 328 316 306 309 306 282 277 298 315 308 300 299 299 305 310 315 316 314 310 306 291
307 308 308 312 315 318 320 323 325 326 324 322 317 307 297 292 287 301 305 310 317 310 306 299 300 314 319 320 318 316 314 311 306